Bellingham, WA
on Tuesday, December 18, 2012

Tuesday
Previous Day Next Day
Daily Summary
 ActualAverageRecord
Temperature
Mean Temperature °F 38°F  
Max Temperature 39°F 44°F 56°F (1972)
Min Temperature 33°F 32°F 15°F (1984)
Degree Days
Heating Degree Days 29 27  
Month to date heating degree days 476  
Cooling Degree Days 0 0  
Month to date cooling degree days 0  
Year to date cooling degree days 42  
Moisture
Dew Point 33°F   
Average Humidity 86    
Maximum Humidity 100    
Minimum Humidity 73    
Precipitation
Precipitation 0.06 in 0.13 in 0.86 in (1960)
Month to date precipitation 2.60  
Year to date precipitation 34.21  
Wind
Wind Speed 10 mph   
Max Wind Speed 18 mph   
Max Gust Speed 26 mph   
Visibility 9 miles   
Events Rain , Snow   

Key: T is trace of precipitation, MM is missing value
Source: NWS Daily Summary
Time(PST)TemperatureDew PointHumidity Pressure Visibility Wind DirectionWind SpeedGust SpeedPrecipitationEvents Conditions
12:27 AM 37.4°F 30.2°F 75% 29.83 in 10.0 miles SSE 5.8 mph - N/A   Mostly Cloudy
12:53 AM 37.9°F 32.0°F 79% 29.87 in 10.0 miles SSE 11.5 mph - N/A   Overcast
1:53 AM 37.0°F 32.0°F 82% 29.87 in 10.0 miles East 4.6 mph - N/A   Overcast
2:31 AM 37.4°F 32.0°F 81% 29.85 in 10.0 miles SSE 11.5 mph 23.0 mph 0.00 in Rain Light Rain
2:51 AM 35.6°F 33.8°F 93% 29.85 in 9.0 miles SSE 12.7 mph - 0.00 in   Overcast
2:53 AM 36.0°F 33.1°F 89% 29.88 in 9.0 miles SSE 17.3 mph 21.9 mph 0.00 in   Overcast
2:58 AM 35.6°F 33.8°F 93% 29.85 in 10.0 miles SSE 15.0 mph 21.9 mph 0.00 in Rain Light Freezing Rain
3:02 AM 35.6°F 33.8°F 93% 29.85 in 9.0 miles SSE 11.5 mph 20.7 mph 0.00 in Snow Light Snow
3:12 AM 33.8°F 33.8°F 100% 29.85 in 2.5 miles SSE 9.2 mph 18.4 mph 0.00 in Snow Light Snow
3:18 AM 33.8°F 32.0°F 93% 29.85 in 1.0 miles SSE 9.2 mph - 0.01 in Snow Light Snow
3:42 AM 33.8°F 33.8°F 100% 29.85 in 3.0 miles ESE 5.8 mph - 0.02 in Snow Light Snow
3:53 AM 34.0°F 33.1°F 96% 29.88 in 8.0 miles SE 6.9 mph - 0.02 in Snow Light Snow
4:04 AM 35.6°F 33.8°F 93% 29.84 in 10.0 miles SSE 8.1 mph - 0.00 in   Overcast
4:29 AM 35.6°F 33.8°F 93% 29.84 in 10.0 miles SE 6.9 mph - 0.00 in   Overcast
4:53 AM 36.0°F 33.1°F 89% 29.87 in 10.0 miles SSE 11.5 mph 17.3 mph 0.00 in   Overcast
5:53 AM 37.0°F 33.1°F 86% 29.88 in 10.0 miles SE 10.4 mph - N/A   Overcast
6:53 AM 37.0°F 33.1°F 86% 29.88 in 10.0 miles SE 8.1 mph - 0.00 in   Overcast
7:53 AM 37.0°F 30.9°F 79% 29.89 in 10.0 miles SSE 13.8 mph - N/A   Mostly Cloudy
8:27 AM 35.6°F 32.0°F 87% 29.87 in 10.0 miles SE 8.1 mph - N/A   Mostly Cloudy
8:53 AM 37.0°F 32.0°F 82% 29.91 in 10.0 miles SE 11.5 mph - N/A   Mostly Cloudy
9:30 AM 37.4°F 32.0°F 81% 29.89 in 4.0 miles SSE 18.4 mph 23.0 mph 0.00 in Snow Light Snow
9:53 AM 36.0°F 33.1°F 89% 29.93 in 9.0 miles SSE 15.0 mph 20.7 mph 0.01 in Rain Light Freezing Rain
10:27 AM 37.4°F 33.8°F 87% 29.90 in 10.0 miles SSE 9.2 mph - 0.00 in   Overcast
10:34 AM 37.4°F 33.8°F 87% 29.90 in 10.0 miles South 13.8 mph 18.4 mph 0.00 in   Mostly Cloudy
10:53 AM 37.9°F 33.1°F 83% 29.93 in 10.0 miles SSE 10.4 mph - 0.00 in   Mostly Cloudy
11:00 AM 39.2°F 33.8°F 81% 29.90 in 10.0 miles SSE 10.4 mph 16.1 mph N/A   Overcast
11:15 AM 37.4°F 33.8°F 87% 29.90 in 10.0 miles SSE 10.4 mph - N/A   Mostly Cloudy
11:31 AM 37.4°F 32.0°F 81% 29.90 in 10.0 miles SSE 9.2 mph - N/A   Mostly Cloudy
11:42 AM 37.4°F 32.0°F 81% 29.90 in 10.0 miles SSE 8.1 mph - N/A   Mostly Cloudy
11:53 AM 37.0°F 33.1°F 86% 29.94 in 10.0 miles SSE 9.2 mph - N/A   Mostly Cloudy
12:23 PM 37.4°F 33.8°F 87% 29.91 in 2.5 miles SE 9.2 mph - 0.02 in Snow Light Snow
12:32 PM 35.6°F 33.8°F 93% 29.91 in 3.0 miles East 8.1 mph - 0.02 in Snow Light Snow
12:53 PM 36.0°F 34.0°F 93% 29.94 in 6.0 miles SSE 3.5 mph - 0.03 in Rain Light Rain
1:10 PM 37.4°F 33.8°F 87% 29.91 in 10.0 miles SSE 6.9 mph - 0.00 in Rain Light Rain
1:53 PM 37.0°F 33.1°F 86% 29.94 in 7.0 miles SSE 15.0 mph 23.0 mph 0.00 in Snow Light Snow
2:30 PM 37.4°F 33.8°F 87% 29.91 in 7.0 miles SE 12.7 mph - 0.00 in Rain , Snow Light Rain
2:53 PM 36.0°F 33.1°F 89% 29.94 in 9.0 miles SE 12.7 mph - 0.00 in Rain , Snow Light Rain
3:01 PM 35.6°F 33.8°F 93% 29.92 in 8.0 miles SE 10.4 mph - 0.00 in Rain , Snow Light Rain
3:53 PM 37.9°F 34.0°F 86% 29.95 in 10.0 miles SSE 11.5 mph 16.1 mph 0.00 in   Overcast
4:27 PM 37.4°F 33.8°F 87% 29.93 in 10.0 miles SE 8.1 mph - N/A   Mostly Cloudy
4:53 PM 37.0°F 33.1°F 86% 29.96 in 10.0 miles SE 9.2 mph - N/A   Overcast
5:53 PM 37.0°F 32.0°F 82% 29.97 in 10.0 miles SSE 8.1 mph - N/A   Mostly Cloudy
6:40 PM 37.4°F 33.8°F 87% 29.94 in 9.0 miles South 10.4 mph - 0.00 in Rain Light Rain
6:53 PM 37.0°F 33.1°F 86% 29.96 in 8.0 miles SE 8.1 mph - 0.00 in Rain Light Rain
7:29 PM 37.4°F 32.0°F 81% 29.94 in 10.0 miles SE 6.9 mph - 0.00 in   Overcast
7:53 PM 37.9°F 32.0°F 79% 29.96 in 10.0 miles SSE 10.4 mph - 0.00 in   Overcast
8:01 PM 37.4°F 32.0°F 81% 29.93 in 10.0 miles SSE 8.1 mph - N/A   Overcast
8:44 PM 37.4°F 32.0°F 81% 29.92 in 10.0 miles SE 11.5 mph - N/A   Mostly Cloudy
8:53 PM 37.0°F 32.0°F 82% 29.95 in 10.0 miles SSE 10.4 mph - N/A   Mostly Cloudy
9:53 PM 37.0°F 30.9°F 79% 29.95 in 10.0 miles SSE 15.0 mph 19.6 mph N/A   Clear
10:53 PM 37.9°F 30.0°F 73% 29.94 in 10.0 miles SE 17.3 mph 26.5 mph N/A   Partly Cloudy
11:53 PM 37.9°F 30.0°F 73% 29.93 in 10.0 miles SSE 17.3 mph 21.9 mph N/A   Clear
Moon Phase
Dec. 18 Dec. 20 Dec. 28 Jan. 04 Jan. 11
Sunrise:07:59 AM (PST) Moon Rise:11:13 AM (PST)12/18
Sunset:04:14 PM (PST) Moon Set:11:17 PM (PST)12/18

Copyright © 2014 The Weather Underground, Inc.